2016050100 , 00 , 8
2016050101 , 01 , 16
2016050102 , 02 , 22
2016050103 , 03 , 17
2016050104 , 04 , 0
2016050105 , 05 , 10
2016050106 , 06 , 18
2016050107 , 07 , 15
2016050108 , 08 , 18
2016050109 , 09 , 17
2016050110 , 10 , 10
2016050111 , 11 , 17
2016050112 , 12 , 26
2016050113 , 13 , 19
2016050114 , 14 , 13
2016050115 , 15 , 27
2016050116 , 16 , 17
2016050117 , 17 , 29
2016050118 , 18 , 26
2016050119 , 19 , 13
2016050120 , 20 , 9
2016050121 , 21 , 8
2016050122 , 22 , 10
2016050123 , 23 , 12
2016050200 , 00 , 12
2016050201 , 01 , 14
2016050202 , 02 , 20
2016050203 , 03 , 13
2016050204 , 04 , 55
2016050205 , 05 , 19
2016050206 , 06 , 22
2016050207 , 07 , 24
2016050208 , 08 , 18
2016050209 , 09 , 12
2016050210 , 10 , 14
2016050211 , 11 , 14
2016050212 , 12 , 7
2016050213 , 13 , 14
2016050214 , 14 , 10
2016050215 , 15 , 15
2016050216 , 16 , 15
2016050217 , 17 , 12
2016050218 , 18 , 23
2016050219 , 19 , 12
2016050220 , 20 , 32
2016050221 , 21 , 6
2016050222 , 22 , 10
2016050223 , 23 , 12
2016050300 , 00 , 18
2016050301 , 01 , 10
2016050302 , 02 , 12
2016050303 , 03 , 6
2016050304 , 04 , 19
2016050305 , 05 , 18
2016050306 , 06 , 30
2016050307 , 07 , 25
2016050308 , 08 , 21
2016050309 , 09 , 25
2016050310 , 10 , 24
2016050311 , 11 , 17
2016050312 , 12 , 11
2016050313 , 13 , 6
2016050314 , 14 , 16
2016050315 , 15 , 10
2016050316 , 16 , 14
2016050317 , 17 , 11
2016050318 , 18 , 26
2016050319 , 19 , 73
2016050320 , 20 , 46
2016050321 , 21 , 21
2016050322 , 22 , 14
2016050323 , 23 , 8
2016050400 , 00 , 10
2016050401 , 01 , 14
2016050402 , 02 , 23
2016050403 , 03 , 17
2016050404 , 04 , 12
2016050405 , 05 , 21
2016050406 , 06 , 19
2016050407 , 07 , 32
2016050408 , 08 , 24
2016050409 , 09 , 30
2016050410 , 10 , 29
2016050411 , 11 , 21
2016050412 , 12 , 9
2016050413 , 13 , 13
2016050414 , 14 , 9
2016050415 , 15 , 35
2016050416 , 16 , 20
2016050417 , 17 , 19
2016050418 , 18 , 20
2016050419 , 19 , 18
2016050420 , 20 , 18
2016050421 , 21 , 16
2016050422 , 22 , 15
2016050423 , 23 , 17
2016050500 , 00 , 11
2016050501 , 01 , 14
2016050502 , 02 , 17
2016050503 , 03 , 23
2016050504 , 04 , 28
2016050505 , 05 , 29
2016050506 , 06 , 33
2016050507 , 07 , 31
2016050508 , 08 , 26
2016050509 , 09 , 30
2016050510 , 10 , 15
2016050511 , 11 , 11
2016050512 , 12 , 12
2016050513 , 13 , 12
2016050514 , 14 , 11
2016050515 , 15 , 16
2016050516 , 16 , 11
2016050517 , 17 , 17
2016050518 , 18 , 19
2016050519 , 19 , 18
2016050520 , 20 , 22
2016050521 , 21 , 17
2016050522 , 22 , 14
2016050523 , 23 , 18
2016050600 , 00 , 12
2016050601 , 01 , 11
2016050602 , 02 , 19
2016050603 , 03 , 9
2016050604 , 04 , 37
2016050605 , 05 , 18
2016050606 , 06 , 21
2016050607 , 07 , 13
2016050608 , 08 , 32
2016050609 , 09 , 21
2016050610 , 10 , 22
2016050611 , 11 , 11
2016050612 , 12 , 11
2016050613 , 13 , 11
2016050614 , 14 , 8
2016050615 , 15 , 10
2016050616 , 16 , 18
2016050617 , 17 , 5
2016050618 , 18 , 12
2016050619 , 19 , 4
2016050620 , 20 , 6
2016050621 , 21 , 13
2016050622 , 22 , 5
2016050623 , 23 , 9
2016050700 , 00 , 11
2016050701 , 01 , 11
2016050702 , 02 , 22
2016050703 , 03 , 23
2016050704 , 04 , 48
2016050705 , 05 , 45
2016050706 , 06 , 23
2016050707 , 07 , 16
2016050708 , 08 , 30
2016050709 , 09 , 24
2016050710 , 10 , 21
2016050711 , 11 , 18
2016050712 , 12 , 26
2016050713 , 13 , 18
2016050714 , 14 , 16
2016050715 , 15 , 21
2016050716 , 16 , 19
2016050717 , 17 , 14
2016050718 , 18 , 15
2016050719 , 19 , 13
2016050720 , 20 , 24
2016050721 , 21 , 16
2016050722 , 22 , 21
2016050723 , 23 , 14
2016050800 , 00 , 15
2016050801 , 01 , 14
2016050802 , 02 , 29
2016050803 , 03 , 42
2016050804 , 04 , 57
2016050805 , 05 , 30
2016050806 , 06 , 16
2016050807 , 07 , 27
2016050808 , 08 , 10
2016050809 , 09 , 9
2016050810 , 10 , 5
2016050811 , 11 , 3
2016050812 , 12 , 9
2016050813 , 13 , 15
2016050814 , 14 , 13
2016050815 , 15 , 7
2016050816 , 16 , 4
2016050817 , 17 , 10
2016050818 , 18 , 8
2016050819 , 19 , 14
2016050820 , 20 , 14
2016050821 , 21 , 16
2016050822 , 22 , 14
2016050823 , 23 , 10
2016050900 , 00 , 12
2016050901 , 01 , 16
2016050902 , 02 , 17
2016050903 , 03 , 14
2016050904 , 04 , 26
2016050905 , 05 , 13
2016050906 , 06 , 19
2016050907 , 07 , 9
2016050908 , 08 , 20
2016050909 , 09 , 19
2016050910 , 10 , 12
2016050911 , 11 , 10
2016050912 , 12 , 9
2016050913 , 13 , 16
2016050914 , 14 , 13
2016050915 , 15 , 7
2016050916 , 16 , 9
2016050917 , 17 , 13
2016050918 , 18 , 7
2016050919 , 19 , 15
2016050920 , 20 , 19
2016050921 , 21 , 13
2016050922 , 22 , 10
2016050923 , 23 , 6
2016051000 , 00 , 12
2016051001 , 01 , 17
2016051002 , 02 , 29
2016051003 , 03 , 17
2016051004 , 04 , 20
2016051005 , 05 , 39
2016051006 , 06 , 17
2016051007 , 07 , 21
2016051008 , 08 , 26
2016051009 , 09 , 17
2016051010 , 10 , 20
2016051011 , 11 , 15
2016051012 , 12 , 12
2016051013 , 13 , 13
2016051014 , 14 , 19
2016051015 , 15 , 10
2016051016 , 16 , 13
2016051017 , 17 , 9
2016051018 , 18 , 8
2016051019 , 19 , 16
2016051020 , 20 , 9
2016051021 , 21 , 18
2016051022 , 22 , 9
2016051023 , 23 , 14
2016051100 , 00 , 19
2016051101 , 01 , 19
2016051102 , 02 , 12
2016051103 , 03 , 19
2016051104 , 04 , 21
2016051105 , 05 , 23
2016051106 , 06 , 24
2016051107 , 07 , 25
2016051108 , 08 , 23
2016051109 , 09 , 26
2016051110 , 10 , 19
2016051111 , 11 , 23
2016051112 , 12 , 16
2016051113 , 13 , 14
2016051114 , 14 , 11
2016051115 , 15 , 13
2016051116 , 16 , 12
2016051117 , 17 , 12
2016051118 , 18 , 10
2016051119 , 19 , 8
2016051120 , 20 , 12
2016051121 , 21 , 11
2016051122 , 22 , 12
2016051123 , 23 , 15
2016051200 , 00 , 24
2016051201 , 01 , 13
2016051202 , 02 , 20
2016051203 , 03 , 14
2016051204 , 04 , 16
2016051205 , 05 , 25
2016051206 , 06 , 30
2016051207 , 07 , 16
2016051208 , 08 , 22
2016051209 , 09 , 12
2016051210 , 10 , 14
2016051211 , 11 , 17
2016051212 , 12 , 16
2016051213 , 13 , 9
2016051214 , 14 , 12
2016051215 , 15 , 6
2016051216 , 16 , 13
2016051217 , 17 , 12
2016051218 , 18 , 28
2016051219 , 19 , 17
2016051220 , 20 , 18
2016051221 , 21 , 14
2016051222 , 22 , 17
2016051223 , 23 , 16
2016051300 , 00 , 14
2016051301 , 01 , 13
2016051302 , 02 , 15
2016051303 , 03 , 14
2016051304 , 04 , 31
2016051305 , 05 , 20
2016051306 , 06 , 23
2016051307 , 07 , 18
2016051308 , 08 , 18
2016051309 , 09 , 17
2016051310 , 10 , 20
2016051311 , 11 , 11
2016051312 , 12 , 10
2016051313 , 13 , 13
2016051314 , 14 , 17
2016051315 , 15 , 14
2016051316 , 16 , 10
2016051317 , 17 , 14
2016051318 , 18 , 11
2016051319 , 19 , 7
2016051320 , 20 , 6
2016051321 , 21 , 10
2016051322 , 22 , 23
2016051323 , 23 , 16
2016051400 , 00 , 19
2016051401 , 01 , 0
2016051402 , 02 , 0
2016051403 , 03 , 10
2016051404 , 04 , 28
2016051405 , 05 , 12
2016051406 , 06 , 16
2016051407 , 07 , 24
2016051408 , 08 , 27
2016051409 , 09 , 15
2016051410 , 10 , 13
2016051411 , 11 , 9
2016051412 , 12 , 8
2016051413 , 13 , 13
2016051414 , 14 , 14
2016051415 , 15 , 16
2016051416 , 16 , 20
2016051417 , 17 , 30
2016051418 , 18 , 27
2016051419 , 19 , 22
2016051420 , 20 , 26
2016051421 , 21 , 21
2016051422 , 22 , 14
2016051423 , 23 , 32
2016051500 , 00 , 33
2016051501 , 01 , 44
2016051502 , 02 , 16
2016051503 , 03 , 13
2016051504 , 04 , 9
2016051505 , 05 , 12
2016051506 , 06 , 30
2016051507 , 07 , 26
2016051508 , 08 , 24
2016051509 , 09 , 19
2016051510 , 10 , 19
2016051511 , 11 , 14
2016051512 , 12 , 22
2016051513 , 13 , 23
2016051514 , 14 , 27
2016051515 , 15 , 17
2016051516 , 16 , 15
2016051517 , 17 , 10
2016051518 , 18 , 37
2016051519 , 19 , 25
2016051520 , 20 , 23
2016051521 , 21 , 23
2016051522 , 22 , 29
2016051523 , 23 , 26
2016051600 , 00 , 25
2016051601 , 01 , 16
2016051602 , 02 , 14
2016051603 , 03 , 12
2016051604 , 04 , 33
2016051605 , 05 , 28
2016051606 , 06 , 28
2016051607 , 07 , 17
2016051608 , 08 , 14
2016051609 , 09 , 13
2016051610 , 10 , 13
2016051611 , 11 , 16
2016051612 , 12 , 15
2016051613 , 13 , 22
2016051614 , 14 , 29
2016051615 , 15 , 18
2016051616 , 16 , 17
2016051617 , 17 , 25
2016051618 , 18 , 16
2016051619 , 19 , 13
2016051620 , 20 , 12
2016051621 , 21 , 17
2016051622 , 22 , 12
2016051623 , 23 , 9
2016051700 , 00 , 15
2016051701 , 01 , 8
2016051702 , 02 , 14
2016051703 , 03 , 18
2016051704 , 04 , 26
2016051705 , 05 , 19
2016051706 , 06 , 16
2016051707 , 07 , 28
2016051708 , 08 , 13
2016051709 , 09 , 13
2016051710 , 10 , 11
2016051711 , 11 , 13
2016051712 , 12 , 13
2016051713 , 13 , 9
2016051714 , 14 , 2
2016051715 , 15 , 6
2016051716 , 16 , 8
2016051717 , 17 , 5
2016051718 , 18 , 7
2016051719 , 19 , 7
2016051720 , 20 , 3
2016051721 , 21 , 6
2016051722 , 22 , 6
2016051723 , 23 , 10
2016051800 , 00 , 14
2016051801 , 01 , 15
2016051802 , 02 , 15
2016051803 , 03 , 18
2016051804 , 04 , 8
2016051805 , 05 , 20
2016051806 , 06 , 6
2016051807 , 07 , 20
2016051808 , 08 , 9
2016051809 , 09 , 19
2016051810 , 10 , 21
2016051811 , 11 , 10
2016051812 , 12 , 11
2016051813 , 13 , 11
2016051814 , 14 , 17
2016051815 , 15 , 11
2016051816 , 16 , 15
2016051817 , 17 , 14
2016051818 , 18 , 15
2016051819 , 19 , 5
2016051820 , 20 , 5
2016051821 , 21 , 1
2016051822 , 22 , 0
2016051823 , 23 , 7
2016051900 , 00 , 0
2016051901 , 01 , 0
2016051902 , 02 , 0
2016051903 , 03 , 14
2016051904 , 04 , 2
2016051905 , 05 , 0
2016051906 , 06 , 0
2016051907 , 07 , 11
2016051908 , 08 , 15
2016051909 , 09 , 17
2016051910 , 10 , 17
2016051911 , 11 , 21
2016051912 , 12 , 30
2016051913 , 13 , 28
2016051914 , 14 , 22
2016051915 , 15 , 7
2016051916 , 16 , 16
2016051917 , 17 , 26
2016051918 , 18 , 24
2016051919 , 19 , 15
2016051920 , 20 , 12
2016051921 , 21 , 15
2016051922 , 22 , 11
2016051923 , 23 , 16
2016052000 , 00 , 12
2016052001 , 01 , 25
2016052002 , 02 , 15
2016052003 , 03 , 26
2016052004 , 04 , 37
2016052005 , 05 , 16
2016052006 , 06 , 23
2016052007 , 07 , 25
2016052008 , 08 , 24
2016052009 , 09 , 21
2016052010 , 10 , 15
2016052011 , 11 , 15
2016052012 , 12 , 12
2016052013 , 13 , 12
2016052014 , 14 , 15
2016052015 , 15 , 9
2016052016 , 16 , 15
2016052017 , 17 , 15
2016052018 , 18 , 26
2016052019 , 19 , 22
2016052020 , 20 , 15
2016052021 , 21 , 11
2016052022 , 22 , 11
2016052023 , 23 , 13
2016052100 , 00 , 17
2016052101 , 01 , 15
2016052102 , 02 , 14
2016052103 , 03 , 16
2016052104 , 04 , 16
2016052105 , 05 , 27
2016052106 , 06 , 21
2016052107 , 07 , 20
2016052108 , 08 , 25
2016052109 , 09 , 26
2016052110 , 10 , 13
2016052111 , 11 , 8
2016052112 , 12 , 11
2016052113 , 13 , 13
2016052114 , 14 , 13
2016052115 , 15 , 8
2016052116 , 16 , 8
2016052117 , 17 , 10
2016052118 , 18 , 15
2016052119 , 19 , 19
2016052120 , 20 , 19
2016052121 , 21 , 18
2016052122 , 22 , 13
2016052123 , 23 , 21
2016052200 , 00 , 18
2016052201 , 01 , 11
2016052202 , 02 , 20
2016052203 , 03 , 25
2016052204 , 04 , 15
2016052205 , 05 , 23
2016052206 , 06 , 27
2016052207 , 07 , 21
2016052208 , 08 , 19
2016052209 , 09 , 19
2016052210 , 10 , 24
2016052211 , 11 , 25
2016052212 , 12 , 14
2016052213 , 13 , 14
2016052213 , 14 , 14
2016052215 , 15 , 12
2016052216 , 16 , 10
2016052217 , 17 , 12
2016052218 , 18 , 12
2016052219 , 19 , 14
2016052220 , 20 , 20
2016052221 , 21 , 22
2016052222 , 22 , 21
2016052223 , 23 , 16
2016052300 , 00 , 13
2016052301 , 01 , 16
2016052302 , 02 , 21
2016052303 , 03 , 29
2016052304 , 04 , 26
2016052305 , 05 , 17
2016052306 , 06 , 21
2016052307 , 07 , 17
2016052308 , 08 , 13
2016052309 , 09 , 15
2016052310 , 10 , 29
2016052311 , 11 , 24
2016052312 , 12 , 19
2016052313 , 13 , 15
2016052314 , 14 , 19
2016052315 , 15 , 10
2016052316 , 16 , 17
2016052317 , 17 , 15
2016052318 , 18 , 19
2016052319 , 19 , 14
2016052320 , 20 , 16
2016052321 , 21 , 23
2016052322 , 22 , 24
2016052323 , 23 , 20
2016052400 , 00 , 13
2016052401 , 01 , 24
2016052402 , 02 , 14
2016052403 , 03 , 30
2016052404 , 04 , 79
2016052405 , 05 , 21
2016052406 , 06 , 28
2016052407 , 07 , 21
2016052408 , 08 , 29
2016052409 , 09 , 25
2016052410 , 10 , 18
2016052411 , 11 , 17
2016052412 , 12 , 16
2016052413 , 13 , 15
2016052414 , 14 , 7
2016052415 , 15 , 17
2016052416 , 16 , 19
2016052417 , 17 , 10
2016052418 , 18 , 18
2016052419 , 19 , 22
2016052420 , 20 , 19
2016052421 , 21 , 16
2016052422 , 22 , 15
2016052423 , 23 , 22
2016052500 , 00 , 19
2016052501 , 01 , 13
2016052502 , 02 , 16
2016052503 , 03 , 14
2016052504 , 04 , 22
2016052505 , 05 , 25
2016052506 , 06 , 20
2016052507 , 07 , 20
2016052508 , 08 , 18
2016052509 , 09 , 18
2016052510 , 10 , 27
2016052511 , 11 , 16
2016052512 , 12 , 24
2016052513 , 13 , 16
2016052514 , 14 , 31
2016052515 , 15 , 12
2016052516 , 16 , 13
2016052517 , 17 , 15
2016052518 , 18 , 10
2016052519 , 19 , 25
2016052520 , 20 , 29
2016052521 , 21 , 24
2016052522 , 22 , 18
2016052523 , 23 , 15
2016052600 , 00 , 16
2016052601 , 01 , 24
2016052602 , 02 , 27
2016052603 , 03 , 26
2016052604 , 04 , 31
2016052605 , 05 , 27
2016052606 , 06 , 25
2016052607 , 07 , 18
2016052608 , 08 , 18
2016052609 , 09 , 20
2016052610 , 10 , 22
2016052611 , 11 , 23
2016052612 , 12 , 18
2016052613 , 13 , 17
2016052614 , 14 , 9
2016052615 , 15 , 17
2016052616 , 16 , 28
2016052617 , 17 , 33
2016052618 , 18 , 16
2016052619 , 19 , 30
2016052620 , 20 , 34
2016052621 , 21 , 23
2016052622 , 22 , 20
2016052623 , 23 , 24
2016052700 , 00 , 22
2016052701 , 01 , 17
2016052702 , 02 , 15
2016052703 , 03 , 16
2016052704 , 04 , 25
2016052705 , 05 , 25
2016052706 , 06 , 24
2016052707 , 07 , 22
2016052708 , 08 , 28
2016052709 , 09 , 24
2016052710 , 10 , 23
2016052711 , 11 , 17
2016052712 , 12 , 19
2016052713 , 13 , 13
2016052714 , 14 , 15
2016052715 , 15 , 19
2016052716 , 16 , 16
2016052717 , 17 , 18
2016052718 , 18 , 41
2016052719 , 19 , 21
2016052720 , 20 , 25
2016052721 , 21 , 14
2016052722 , 22 , 11
2016052723 , 23 , 31
2016052800 , 00 , 18
2016052801 , 01 , 19
2016052802 , 02 , 16
2016052803 , 03 , 29
2016052804 , 04 , 39
2016052805 , 05 , 12
2016052806 , 06 , 33
2016052807 , 07 , 17
2016052808 , 08 , 17
2016052809 , 09 , 24
2016052810 , 10 , 31
2016052811 , 11 , 22
2016052812 , 12 , 14
2016052813 , 13 , 16
2016052814 , 14 , 11
2016052815 , 15 , 15
2016052816 , 16 , 8
2016052817 , 17 , 14
2016052818 , 18 , 13
2016052819 , 19 , 7
2016052820 , 20 , 12
2016052821 , 21 , 16
2016052822 , 22 , 12
2016052823 , 23 , 17
2016052900 , 00 , 23
2016052901 , 01 , 14
2016052902 , 02 , 22
2016052903 , 03 , 26
2016052904 , 04 , 26
2016052905 , 05 , 27
2016052906 , 06 , 24
2016052907 , 07 , 31
2016052908 , 08 , 29
2016052909 , 09 , 24
2016052910 , 10 , 14
2016052911 , 11 , 26
2016052912 , 12 , 23
2016052913 , 13 , 13
2016052914 , 14 , 16
2016052915 , 15 , 19
2016052916 , 16 , 14
2016052917 , 17 , 13
2016052918 , 18 , 22
2016052920 , 20 , 19
2016052921 , 21 , 20
2016052922 , 22 , 12
2016052923 , 23 , 17
2016053000 , 00 , 20
2016053001 , 01 , 17
2016053002 , 02 , 14
2016053003 , 03 , 14
2016053004 , 04 , 23
2016053005 , 05 , 22
2016053006 , 06 , 24
2016053007 , 07 , 1
2016053008 , 08 , 02016053009 , 09 , 0
2016053010 , 10 , 2
2016053011 , 11 , 13
2016053012 , 12 , 15
2016053013 , 13 , 14
2016053014 , 14 , 17
2016053015 , 15 , 30
2016053016 , 16 , 74
2016053017 , 17 , 23
2016053018 , 18 , 71
2016053019 , 19 , 142
2016053020 , 20 , 160
2016053021 , 21 , 21
2016053022 , 22 , 16
2016053023 , 23 , 23
2016053100 , 00 , 18
2016053101 , 01 , 21
2016053102 , 02 , 21
2016053103 , 03 , 36
2016053104 , 04 , 97
2016053105 , 05 , 29
2016053106 , 06 , 29
2016053107 , 07 , 33
2016053108 , 08 , 25
2016053109 , 09 , 28
2016053110 , 10 , 23
2016053111 , 11 , 27
2016053112 , 12 , 19
2016053113 , 13 , 18
2016053114 , 14 , 43
2016053115 , 15 , 18
2016053116 , 16 , 24
2016053117 , 17 , 10
2016053118 , 18 , 74
2016053119 , 19 , 51
2016053120 , 20 , 21
2016053121 , 21 , 16
2016053122 , 22 , 14
2016053123 , 23 , 16
